FALCON 9 DEB (55966 NORAD) Tracking and Keplerian Element Data

This shows tracking and keplerian element data for the satellite.

Feedback or suggestion? Click here.




ElementValue
Catalog55966
NameFALCON 9 DEB
Epoch Orbit142
Epoch Day84.63985501
Epoch Year2023
RAAN159.0234
Inclination69.9814
Eccentricity0.0049954
Argument of Perigee150.008
Mean Anonmoly210.4019
Mean Motion16.16591874
Decay Rate0.01941601
L11 55966U 23037BE 23084.63985501 .01941601 40891-5 10301-2 0 9996
L22 55966 69.9814 159.0234 0049954 150.0080 210.4019 16.16591874 1421



Live tracking and technical data element details for FALCON 9 DEB (NORAD 55966). FALCON 9 DEB can be tracked NOW for your location showing map with azimuth and elevation plus other details from your city location.







IsCatalogInMostPopularTable: catalog: 55966, numindb: 8
Update: records affected: 1



GetName: 55966 FALCON 9 DEB

Hit Count: updated at: Tue, 06 Jun 2023 02:48:33 GMT